• In Hungary
  • List of Countries
  • For 7 days
  • Water Temperature
  • Satellite Maps
  • Weather Map
  • News
  • Weather Widgets
  • user-avatar
    Login

    Hourly Weather Stan'kova

    Today, 13 December, Wednesday

    Time Temperature Precipitation Wind Pressure Humidity
    00:00 +8°C° 0.5 mm 3 mps 731 mmHg 86%
    01:00 +7°C° 0.5 mm 3 mps 731 mmHg 88%
    02:00 +7°C° 0 mm 2 mps 731 mmHg 90%
    03:00 +5°C° 0.6 mm 3 mps 731 mmHg 89%
    04:00 +4°C° 0.6 mm 3 mps 731 mmHg 88%
    05:00 +4°C° 0.6 mm 4 mps 731 mmHg 87%
    06:00 +3°C° 0.7 mm 3 mps 732 mmHg 87%
    07:00 +3°C° 0.7 mm 3 mps 732 mmHg 87%
    08:00 +2°C° 0.7 mm 3 mps 733 mmHg 88%
    09:00 +2°C° 0.7 mm 3 mps 733 mmHg 88%
    10:00 +3°C° 0.7 mm 2 mps 733 mmHg 89%
    11:00 +2°C° 0.7 mm 2 mps 733 mmHg 90%
    12:00 +2°C° 0.5 mm 2 mps 733 mmHg 90%
    13:00 +3°C° 0.5 mm 1 mps 733 mmHg 90%
    14:00 +3°C° 0.5 mm 1 mps 733 mmHg 90%
    15:00 +3°C° 0.1 mm 1 mps 733 mmHg 92%
    16:00 +3°C° 0.1 mm 1 mps 732 mmHg 93%
    17:00 +2°C° 0.1 mm 1 mps 732 mmHg 94%
    18:00 +2°C° 0 mm 1 mps 732 mmHg 94%
    19:00 +2°C° 0 mm 1 mps 731 mmHg 95%
    20:00 +2°C° 0 mm 1 mps 731 mmHg 95%
    21:00 +2°C° 0 mm 1 mps 731 mmHg 95%
    22:00 +1°C° 0 mm 1 mps 730 mmHg 95%
    23:00 -1°C° 0 mm 2 mps 730 mmHg 95%

    Tomorrow, 14 December, Thursday

    Time Temperature Precipitation Wind Pressure Humidity
    00:00 -1°C° 0 mm 2 mps 730 mmHg 95%
    01:00 -1°C° 0 mm 2 mps 729 mmHg 94%
    02:00 -1°C° 0 mm 2 mps 729 mmHg 94%
    03:00 -1°C° 0 mm 2 mps 728 mmHg 93%
    04:00 -1°C° 0 mm 3 mps 728 mmHg 92%
    05:00 -1°C° 0 mm 3 mps 727 mmHg 92%
    06:00 -1°C° 0 mm 3 mps 727 mmHg 90%
    07:00 -1°C° 0 mm 3 mps 727 mmHg 89%
    08:00 -1°C° 0 mm 3 mps 726 mmHg 88%
    09:00 -1°C° 0 mm 4 mps 726 mmHg 85%
    10:00 +1°C° 0 mm 5 mps 725 mmHg 81%
    11:00 +2°C° 0 mm 5 mps 725 mmHg 78%
    12:00 +2°C° 0 mm 5 mps 725 mmHg 78%
    13:00 +2°C° 0 mm 5 mps 724 mmHg 77%
    14:00 +3°C° 0 mm 5 mps 724 mmHg 77%
    15:00 +2°C° 0 mm 5 mps 724 mmHg 78%
    16:00 +2°C° 0 mm 5 mps 725 mmHg 79%
    17:00 +2°C° 0 mm 5 mps 725 mmHg 80%
    18:00 +2°C° 0 mm 5 mps 725 mmHg 80%
    19:00 +2°C° 0 mm 5 mps 725 mmHg 79%
    20:00 +2°C° 0 mm 5 mps 726 mmHg 78%
    21:00 +3°C° 0 mm 4 mps 726 mmHg 79%
    22:00 +1°C° 0 mm 4 mps 726 mmHg 80%
    23:00 +2°C° 0 mm 3 mps 726 mmHg 81%

    Day after tomorrow, 15 December, Friday

    Time Temperature Precipitation Wind Pressure Humidity
    00:00 +1°C° 0 mm 3 mps 726 mmHg 81%
    01:00 +1°C° 0 mm 3 mps 726 mmHg 81%
    02:00 +1°C° 0 mm 3 mps 726 mmHg 81%
    03:00 +1°C° 0 mm 3 mps 725 mmHg 81%
    04:00 +1°C° 0 mm 3 mps 725 mmHg 82%
    05:00 0°C° 0 mm 4 mps 724 mmHg 82%
    06:00 0°C° 0 mm 4 mps 724 mmHg 83%
    07:00 0°C° 0 mm 4 mps 723 mmHg 83%
    08:00 +1°C° 0 mm 4 mps 723 mmHg 84%
    09:00 +3°C° 0 mm 4 mps 723 mmHg 83%
    10:00 +4°C° 0 mm 4 mps 723 mmHg 82%
    11:00 +5°C° 0 mm 4 mps 722 mmHg 80%
    12:00 +5°C° 0.3 mm 4 mps 722 mmHg 82%
    13:00 +5°C° 0.3 mm 3 mps 722 mmHg 83%
    14:00 +7°C° 0.3 mm 2 mps 722 mmHg 85%
    15:00 +6°C° 1.1 mm 2 mps 722 mmHg 88%
    16:00 +6°C° 1.1 mm 2 mps 722 mmHg 91%
    17:00 +6°C° 1.1 mm 1 mps 722 mmHg 94%
    18:00 +6°C° 0.7 mm 1 mps 723 mmHg 94%
    19:00 +6°C° 0.7 mm 1 mps 723 mmHg 95%
    20:00 +5°C° 0.7 mm 1 mps 723 mmHg 95%
    21:00 +5°C° 0.4 mm 1 mps 723 mmHg 95%
    22:00 +5°C° 0.4 mm 1 mps 723 mmHg 95%
    23:00 +4°C° 0.4 mm 1 mps 723 mmHg 95%

    16 December, Saturday

    Time Temperature Precipitation Wind Pressure Humidity
    00:00 +3°C° 1.2 mm 2 mps 722 mmHg 94%
    01:00 +3°C° 1.2 mm 2 mps 722 mmHg 94%
    02:00 +3°C° 1.2 mm 2 mps 721 mmHg 93%
    03:00 +2°C° 2.1 mm 2 mps 721 mmHg 93%
    04:00 +2°C° 2.1 mm 2 mps 720 mmHg 94%
    05:00 +2°C° 2.1 mm 2 mps 720 mmHg 95%
    06:00 +2°C° 0.7 mm 2 mps 720 mmHg 95%
    07:00 +2°C° 0.7 mm 2 mps 720 mmHg 95%
    08:00 +1°C° 0.7 mm 2 mps 720 mmHg 96%
    09:00 +2°C° 0.4 mm 2 mps 720 mmHg 96%
    10:00 +2°C° 0.4 mm 2 mps 720 mmHg 97%
    11:00 +2°C° 0.4 mm 2 mps 721 mmHg 97%
    12:00 +2°C° 0.2 mm 2 mps 721 mmHg 97%
    13:00 +2°C° 0.2 mm 2 mps 722 mmHg 96%
    14:00 +2°C° 0.2 mm 2 mps 722 mmHg 96%
    15:00 +2°C° 0.1 mm 2 mps 723 mmHg 95%
    16:00 0°C° 0.1 mm 3 mps 724 mmHg 95%
    17:00 0°C° 0.1 mm 3 mps 725 mmHg 94%
    18:00 -1°C° 0 mm 3 mps 725 mmHg 94%
    19:00 -1°C° 0 mm 2 mps 726 mmHg 94%
    20:00 -2°C° 0 mm 2 mps 727 mmHg 93%
    21:00 0°C° 0 mm 1 mps 728 mmHg 93%
    22:00 0°C° 0 mm 1 mps 728 mmHg 92%
    23:00 0°C° 0 mm 1 mps 729 mmHg 91%

    17 December, Sunday

    Time Temperature Precipitation Wind Pressure Humidity
    00:00 0°C° 0 mm 1 mps 729 mmHg 91%
    01:00 0°C° 0 mm 1 mps 730 mmHg 90%
    02:00 -1°C° 0 mm 1 mps 730 mmHg 90%
    03:00 -1°C° 0 mm 1 mps 730 mmHg 89%
    04:00 -1°C° 0 mm 1 mps 730 mmHg 88%
    05:00 -1°C° 0 mm 1 mps 730 mmHg 88%
    06:00 -1°C° 0 mm 1 mps 730 mmHg 87%
    07:00 -1°C° 0 mm 1 mps 731 mmHg 87%
    08:00 0°C° 0 mm 1 mps 731 mmHg 87%
    09:00 0°C° 0 mm 1 mps 731 mmHg 87%
    10:00 +1°C° 0 mm 1 mps 732 mmHg 86%
    11:00 +1°C° 0 mm 1 mps 732 mmHg 86%
    12:00 -1°C° 0.1 mm 2 mps 732 mmHg 88%
    13:00 -1°C° 0.1 mm 2 mps 732 mmHg 90%
    14:00 0°C° 0.1 mm 3 mps 732 mmHg 92%
    15:00 -1°C° 0.2 mm 3 mps 732 mmHg 93%
    16:00 -1°C° 0.2 mm 3 mps 733 mmHg 94%
    17:00 -1°C° 0.2 mm 3 mps 733 mmHg 94%
    18:00 -1°C° 0.2 mm 3 mps 733 mmHg 94%
    19:00 -1°C° 0.2 mm 3 mps 734 mmHg 94%
    20:00 -2°C° 0.2 mm 3 mps 734 mmHg 94%
    21:00 -2°C° 0.1 mm 3 mps 734 mmHg 94%
    22:00 -2°C° 0.1 mm 3 mps 735 mmHg 95%
    23:00 -2°C° 0.1 mm 3 mps 735 mmHg 95%

    18 December, Monday

    Time Temperature Precipitation Wind Pressure Humidity
    00:00 -2°C° 0.1 mm 3 mps 735 mmHg 94%
    01:00 -2°C° 0.1 mm 3 mps 735 mmHg 94%
    02:00 -2°C° 0.1 mm 3 mps 735 mmHg 94%
    03:00 -2°C° 0.1 mm 3 mps 736 mmHg 94%
    04:00 -2°C° 0.1 mm 3 mps 736 mmHg 94%
    05:00 -2°C° 0.1 mm 3 mps 736 mmHg 94%
    06:00 -4°C° 0.1 mm 3 mps 736 mmHg 94%
    07:00 -4°C° 0.1 mm 3 mps 737 mmHg 93%
    08:00 -4°C° 0.1 mm 3 mps 737 mmHg 93%
    09:00 -2°C° 0.1 mm 3 mps 737 mmHg 92%
    10:00 -2°C° 0.1 mm 3 mps 738 mmHg 90%
    11:00 -3°C° 0.1 mm 4 mps 738 mmHg 89%
    12:00 -2°C° 0.1 mm 3 mps 738 mmHg 88%
    13:00 -2°C° 0.1 mm 3 mps 738 mmHg 87%
    14:00 -1°C° 0.1 mm 3 mps 737 mmHg 85%
    15:00 -2°C° 0.1 mm 3 mps 738 mmHg 87%
    16:00 -3°C° 0.1 mm 2 mps 738 mmHg 90%
    17:00 -3°C° 0.1 mm 2 mps 738 mmHg 92%
    18:00 -4°C° 0.1 mm 2 mps 738 mmHg 92%
    19:00 -4°C° 0.1 mm 2 mps 738 mmHg 92%
    20:00 -3°C° 0.1 mm 1 mps 738 mmHg 93%
    21:00 -3°C° 0 mm 1 mps 738 mmHg 92%
    22:00 -3°C° 0 mm 1 mps 739 mmHg 92%
    23:00 -4°C° 0 mm 1 mps 739 mmHg 92%
    Show more